FW3681 Weather Reports


Display with metric or nautical units.
time (UTC)temp
F
wind
direction
speed
MPH
gust
MPH
rain 1hr
in
rain 24hr
in
rain mn
in
humidity
%
barometer
mb
20190627100826 73 323 0.0 0.0 0.00 0.00 0.00 67 1021.2
20190627100325 73 323 0.0 0.0 0.00 0.00 0.00 67 1021.2
20190627095825 73 323 0.0 0.0 0.00 0.00 0.00 67 1021.1
20190627095309 73 323 0.0 0.0 0.00 0.00 0.00 67 1021.0
20190627094816 73 323 0.0 0.0 0.00 0.00 0.00 67 1021.1
20190627094322 74 323 0.0 0.0 0.00 0.00 0.00 67 1021.0
20190627093834 74 323 0.0 0.0 0.00 0.00 0.00 67 1021.0
20190627093319 74 323 0.0 0.0 0.00 0.00 0.00 67 1021.1
20190627092825 74 323 0.0 0.0 0.00 0.00 0.00 67 1021.1
20190627092311 74 323 0.0 0.0 0.00 0.00 0.00 68 1021.1
20190627091817 74 323 0.0 0.0 0.00 0.00 0.00 68 1021.3
20190627091327 74 323 0.0 0.0 0.00 0.00 0.00 68 1021.4
20190627090813 74 323 0.0 0.0 0.00 0.00 0.00 69 1021.4
20190627090331 74 323 0.0 1.0 0.00 0.00 0.00 69 1021.3
20190627085808 74 309 0.0 1.0 0.00 0.00 0.00 70 1021.4
20190627085318 74 307 0.0 0.0 0.00 0.00 0.00 69 1021.4
20190627084825 74 307 0.0 1.0 0.00 0.00 0.00 70 1021.3
20190627084311 74 307 0.0 1.0 0.00 0.00 0.00 70 1021.4
20190627083815 74 308 0.0 0.0 0.00 0.00 0.00 70 1021.3
20190627083327 74 308 0.0 0.0 0.00 0.00 0.00 71 1021.4
20190627082811 74 308 0.0 0.0 0.00 0.00 0.00 71 1021.3
20190627082317 74 308 0.0 0.0 0.00 0.00 0.00 70 1021.3
20190627081830 74 308 0.0 0.0 0.00 0.00 0.00 70 1021.3
20190627081314 74 308 0.0 0.0 0.00 0.00 0.00 70 1021.4
20190627080820 74 308 0.0 0.0 0.00 0.00 0.00 69 1021.4
20190627080331 74 308 0.0 0.0 0.00 0.00 0.00 69 1021.5
20190627075812 75 308 0.0 0.0 0.00 0.00 0.00 68 1021.5
20190627075317 75 308 0.0 0.0 0.00 0.00 0.00 68 1021.5
20190627074819 75 308 0.0 0.0 0.00 0.00 0.00 68 1021.5
20190627074328 75 308 0.0 0.0 0.00 0.00 0.00 67 1021.4
20190627073809 76 308 0.0 0.0 0.00 0.00 0.00 66 1021.4
20190627073314 76 309 0.0 1.0 0.00 0.00 0.00 66 1021.5
20190627072820 76 308 0.0 1.0 0.00 0.00 0.00 66 1021.4
20190627072329 76 307 0.0 1.0 0.00 0.00 0.00 65 1021.6
20190627071815 76 307 0.0 0.0 0.00 0.00 0.00 65 1021.5
20190627071320 77 307 0.0 3.0 0.00 0.00 0.00 64 1021.5
20190627070826 77 288 1.0 3.0 0.00 0.00 0.00 64 1021.5
20190627070328 77 327 0.0 2.0 0.00 0.00 0.00 63 1021.5
20190627065820 77 336 0.0 1.0 0.00 0.00 0.00 63 1021.6
20190627065325 77 337 0.0 2.0 0.00 0.00 0.00 63 1021.7
20190627064811 77 355 0.0 2.0 0.00 0.00 0.00 62 1021.6
20190627064321 78 345 0.0 1.0 0.00 0.00 0.00 63 1021.6
20190627063827 78 345 0.0 2.0 0.00 0.00 0.00 62 1021.7
20190627063310 78 356 1.0 2.0 0.00 0.00 0.00 62 1021.7
20190627062814 78 338 0.0 1.0 0.00 0.00 0.00 62 1021.7
20190627062324 78 335 0.0 4.0 0.00 0.00 0.00 62 1021.7
20190627061808 78 338 0.0 4.0 0.00 0.00 0.00 61 1021.8
20190627061312 78 278 1.0 2.0 0.00 0.00 0.00 61 1021.8
20190627060824 79 293 1.0 2.0 0.00 0.00 0.00 62 1021.8
20190627060338 79 325 0.0 2.0 0.00 0.00 0.00 62 1021.8
20190627055810 79 331 1.0 2.0 0.00 0.00 0.00 62 1021.9
20190627055319 79 302 0.0 2.0 0.00 0.00 0.00 62 1021.9
20190627054820 79 352 0.0 1.0 0.00 0.00 0.00 61 1021.9
20190627054325 79 353 0.0 2.0 0.00 0.00 0.00 61 1022.0
20190627053809 80 352 0.0 2.0 0.00 0.00 0.00 61 1022.0
20190627053319 80 331 1.0 2.0 0.00 0.00 0.00 61 1022.0
20190627052823 80 19 1.0 2.0 0.00 0.00 0.00 60 1022.0
20190627052312 80 344 0.0 2.0 0.00 0.00 0.00 60 1022.0
20190627051813 80 344 0.0 2.0 0.00 0.00 0.00 59 1022.0
20190627051323 80 340 0.0 2.0 0.00 0.00 0.00 59 1022.1
20190627050808 81 2 0.0 2.0 0.00 0.00 0.00 59 1022.2
20190627050324 81 314 0.0 1.0 0.00 0.00 0.00 58 1022.0
20190627045817 81 320 0.0 0.0 0.00 0.00 0.00 58 1022.0
20190627045322 81 320 0.0 0.0 0.00 0.00 0.00 57 1022.0
20190627044825 81 320 0.0 0.0 0.00 0.00 0.00 57 1022.0
20190627044320 82 320 0.0 0.0 0.00 0.00 0.00 56 1022.1
20190627043824 82 320 0.0 1.0 0.00 0.00 0.00 56 1022.3
20190627043310 82 320 0.0 1.0 0.00 0.00 0.00 55 1022.2
20190627042815 82 313 0.0 2.0 0.00 0.00 0.00 55 1022.2
20190627042324 83 356 0.0 2.0 0.00 0.00 0.00 54 1022.4
20190627041824 83 285 1.0 2.0 0.00 0.00 0.00 54 1022.4
20190627041308 83 318 1.0 2.0 0.00 0.00 0.00 53 1022.2
20190627040814 83 352 0.0 2.0 0.00 0.00 0.00 53 1022.2
20190627040334 83 352 0.0 2.0 0.00 0.00 0.00 53 1022.0
20190627035827 84 329 0.0 4.0 0.00 0.00 0.00 52 1022.0
20190627035309 84 331 1.0 4.0 0.00 0.00 0.00 52 1022.0
20190627034819 84 335 1.0 1.0 0.00 0.00 0.00 52 1022.1
20190627034324 84 340 0.0 1.0 0.00 0.00 0.00 51 1022.1
20190627033808 84 351 1.0 2.0 0.00 0.00 0.00 51 1022.1
20190627033309 84 314 0.0 2.0 0.00 0.00 0.00 51 1022.0
20190627032820 84 310 0.0 3.0 0.00 0.00 0.00 50 1022.1
20190627032324 85 349 1.0 3.0 0.00 0.00 0.00 50 1022.0
20190627031809 85 335 0.0 4.0 0.00 0.00 0.00 50 1021.9
20190627031311 85 359 1.0 4.0 0.00 0.00 0.00 49 1021.8
20190627030821 85 331 1.0 4.0 0.00 0.00 0.00 49 1021.9
20190627030336 85 295 1.0 4.0 0.00 0.00 0.00 49 1021.8
20190627025808 85 335 1.0 4.0 0.00 0.00 0.00 49 1021.7
20190627025319 85 342 0.0 4.0 0.00 0.00 0.00 49 1021.6
20190627024822 85 307 0.0 1.0 0.00 0.00 0.00 49 1021.6
20190627024326 86 329 0.0 4.0 0.00 0.00 0.00 48 1021.5
20190627023809 86 323 1.0 4.0 0.00 0.00 0.00 48 1021.4
20190627023320 86 11 0.0 2.0 0.00 0.00 0.00 48 1021.3
20190627022821 86 304 1.0 5.0 0.00 0.00 0.00 48 1021.1
20190627022330 86 271 0.0 6.0 0.00 0.00 0.00 48 1021.0
20190627021814 86 308 1.0 5.0 0.00 0.00 0.00 47 1021.1
20190627021318 86 332 0.0 1.0 0.00 0.00 0.00 47 1021.0
20190627020823 87 331 0.0 3.0 0.00 0.00 0.00 48 1020.9
20190627020344 87 332 1.0 3.0 0.00 0.00 0.00 47 1020.9
20190627015817 87 20 0.0 0.0 0.00 0.00 0.00 46 1020.7
20190627015321 87 20 0.0 0.0 0.00 0.00 0.00 46 1020.7
20190627014833 87 20 0.0 1.0 0.00 0.00 0.00 45 1020.8
20190627014314 87 20 0.0 2.0 0.00 0.00 0.00 45 1020.6
20190627013819 87 20 0.0 2.0 0.00 0.00 0.00 44 1020.7
20190627013324 88 349 0.0 1.0 0.00 0.00 0.00 44 1020.6
20190627012830 88 349 0.0 1.0 0.00 0.00 0.00 43 1020.6
20190627012318 88 349 0.0 1.0 0.00 0.00 0.00 43 1020.5
20190627011822 88 351 0.0 2.0 0.00 0.00 0.00 43 1020.4
20190627011326 89 321 0.0 2.0 0.00 0.00 0.00 42 1020.4
20190627010815 89 342 0.0 4.0 0.00 0.00 0.00 42 1020.4
20190627010330 89 333 1.0 4.0 0.00 0.00 0.00 42 1020.5
20190627005833 89 330 0.0 1.0 0.00 0.00 0.00 42 1020.3
20190627005315 89 330 0.0 1.0 0.00 0.00 0.00 42 1020.2
20190627004818 89 329 0.0 2.0 0.00 0.00 0.00 42 1020.2
20190627004322 90 336 1.0 2.0 0.00 0.00 0.00 41 1020.1
20190627003830 90 293 0.0 2.0 0.00 0.00 0.00 41 1020.2
20190627003313 90 326 1.0 3.0 0.00 0.00 0.00 40 1020.1
20190627002813 90 305 1.0 4.0 0.00 0.00 0.00 40 1020.0
20190627002317 91 309 1.0 4.0 0.00 0.00 0.00 39 1020.0
20190627001828 91 301 0.0 5.0 0.00 0.00 0.00 38 1019.9
20190627001310 91 272 0.0 5.0 0.00 0.00 0.00 39 1020.1
20190627000814 92 307 2.0 5.0 0.00 0.00 0.00 39 1020.0
20190627000335 92 308 1.0 3.0 0.00 0.00 0.00 39 1019.9
20190626235825 92 297 1.0 5.0 0.00 0.00 0.00 38 1019.8
20190626235326 92 302 2.0 5.0 0.00 0.00 0.00 38 1019.8
20190626234810 92 304 1.0 5.0 0.00 0.00 0.00 37 1019.9
20190626234320 92 297 2.0 5.0 0.00 0.00 0.00 37 1019.8
20190626233823 93 259 1.0 2.0 0.00 0.00 0.00 37 1019.6
20190626233309 93 298 1.0 4.0 0.00 0.00 0.00 38 1019.6
20190626232813 92 297 1.0 4.0 0.00 0.00 0.00 37 1019.7
20190626232324 92 293 0.0 5.0 0.00 0.00 0.00 36 1019.8
20190626231810 92 319 1.0 5.0 0.00 0.00 0.00 36 1019.6
20190626231314 93 285 1.0 4.0 0.00 0.00 0.00 36 1019.7
20190626230826 93 229 0.0 4.0 0.00 0.00 0.00 35 1019.8
20190626230320 93 282 1.0 3.0 0.00 0.00 0.00 34 1019.8
20190626225810 93 300 1.0 5.0 0.00 0.00 0.00 34 1019.8
20190626224833 94 316 1.0 4.0 0.00 0.00 0.00 34 1019.9
20190626224318 94 301 1.0 5.0 0.00 0.00 0.00 33 1019.9
20190626223820 94 296 1.0 5.0 0.00 0.00 0.00 32 1019.8
20190626223332 94 271 1.0 4.0 0.00 0.00 0.00 32 1019.9
20190626222320 94 304 1.0 6.0 0.00 0.00 0.00 31 1020.0
20190626221826 94 278 1.0 6.0 0.00 0.00 0.00 33 1020.0
20190626221309 94 5 0.0 6.0 0.00 0.00 0.00 33 1020.2
20190626220821 95 262 1.0 5.0 0.00 0.00 0.00 32 1020.2
20190626220334 95 241 1.0 2.0 0.00 0.00 0.00 30 1020.2
20190626215834 95 32 0.0 2.0 0.00 0.00 0.00 30 1020.3
20190626215319 95 292 1.0 4.0 0.00 0.00 0.00 30 1020.5
20190626214823 95 317 1.0 4.0 0.00 0.00 0.00 30 1020.4
20190626214311 95 307 1.0 4.0 0.00 0.00 0.00 30 1020.4
20190626213812 94 104 0.0 3.0 0.00 0.00 0.00 32 1020.5
20190626213323 94 51 1.0 5.0 0.00 0.00 0.00 31 1020.6
20190626212827 94 319 1.0 5.0 0.00 0.00 0.00 31 1020.7
20190626212309 95 340 2.0 5.0 0.00 0.00 0.00 30 1020.7
20190626211818 95 334 2.0 3.0 0.00 0.00 0.00 32 1020.7
20190626211322 96 280 0.0 5.0 0.00 0.00 0.00 32 1020.7
20190626210808 95 68 1.0 6.0 0.00 0.00 0.00 33 1020.7
20190626210332 95 16 2.0 6.0 0.00 0.00 0.00 32 1020.8
20190626205823 95 356 2.0 4.0 0.00 0.00 0.00 32 1020.8
20190626205308 95 119 2.0 4.0 0.00 0.00 0.00 33 1020.7
20190626204811 95 101 2.0 4.0 0.00 0.00 0.00 34 1020.7
20190626204321 95 110 2.0 4.0 0.00 0.00 0.00 33 1020.8
20190626203820 95 141 3.0 4.0 0.00 0.00 0.00 33 1020.8
20190626203323 95 155 0.0 4.0 0.00 0.00 0.00 33 1020.8
20190626202825 95 64 2.0 4.0 0.00 0.00 0.00 32 1020.8
20190626202327 95 311 1.0 9.0 0.00 0.00 0.00 34 1020.9
20190626201813 95 342 2.0 9.0 0.00 0.00 0.00 32 1020.9
20190626201315 95 300 2.0 5.0 0.00 0.00 0.00 34 1021.0
20190626200825 94 64 1.0 3.0 0.00 0.00 0.00 34 1021.1
20190626200325 94 63 1.0 5.0 0.00 0.00 0.00 34 1021.0
20190626195816 93 87 3.0 5.0 0.00 0.00 0.00 34 1021.0
20190626195326 93 343 2.0 5.0 0.00 0.00 0.00 36 1021.2
20190626194808 93 289 1.0 4.0 0.00 0.00 0.00 36 1021.3
20190626194313 93 117 1.0 3.0 0.00 0.00 0.00 35 1021.2
20190626193814 94 299 1.0 7.0 0.00 0.00 0.00 33 1021.3
20190626193326 95 34 2.0 7.0 0.00 0.00 0.00 34 1021.2
20190626192809 95 87 1.0 7.0 0.00 0.00 0.00 32 1021.3
20190626192311 94 278 1.0 7.0 0.00 0.00 0.00 32 1021.3
20190626191820 93 77 1.0 7.0 0.00 0.00 0.00 34 1021.4
20190626191323 94 331 2.0 5.0 0.00 0.00 0.00 34 1021.4
20190626190809 94 356 1.0 5.0 0.00 0.00 0.00 35 1021.4
20190626190323 94 54 0.0 5.0 0.00 0.00 0.00 36 1021.4
20190626185822 94 306 2.0 5.0 0.00 0.00 0.00 36 1021.4
20190626185328 94 42 1.0 4.0 0.00 0.00 0.00 36 1021.5
20190626184813 93 101 2.0 4.0 0.00 0.00 0.00 37 1021.4
20190626184324 93 325 1.0 4.0 0.00 0.00 0.00 36 1021.6
20190626183827 93 319 2.0 5.0 0.00 0.00 0.00 35 1021.5
20190626183312 93 1 1.0 5.0 0.00 0.00 0.00 36 1021.6
20190626182816 94 187 0.0 3.0 0.00 0.00 0.00 37 1021.6
20190626182327 93 126 2.0 3.0 0.00 0.00 0.00 37 1021.7
20190626181811 93 343 1.0 6.0 0.00 0.00 0.00 36 1021.7
20190626181313 93 286 2.0 8.0 0.00 0.00 0.00 36 1021.7
20190626180815 94 310 3.0 8.0 0.00 0.00 0.00 34 1021.7
20190626180335 95 330 2.0 5.0 0.00 0.00 0.00 35 1021.8
20190626175825 94 326 2.0 5.0 0.00 0.00 0.00 35 1021.8
20190626175312 93 57 1.0 5.0 0.00 0.00 0.00 35 1022.1
20190626174822 93 67 1.0 6.0 0.00 0.00 0.00 36 1021.9
20190626174309 93 63 2.0 7.0 0.00 0.00 0.00 35 1022.0
20190626173808 93 59 1.0 5.0 0.00 0.00 0.00 37 1022.0
20190626173321 92 110 2.0 6.0 0.00 0.00 0.00 39 1022.2
20190626172824 92 9 2.0 6.0 0.00 0.00 0.00 41 1022.2
20190626172310 91 328 2.0 6.0 0.00 0.00 0.00 41 1022.2
20190626171813 91 146 2.0 7.0 0.00 0.00 0.00 43 1022.2
20190626171323 90 73 2.0 7.0 0.00 0.00 0.00 44 1022.3
20190626170826 89 43 3.0 6.0 0.00 0.00 0.00 45 1022.4
20190626170321 89 327 2.0 8.0 0.00 0.00 0.00 45 1022.4
20190626165814 89 345 4.0 8.0 0.00 0.00 0.00 44 1022.6
20190626165319 89 35 4.0 8.0 0.00 0.00 0.00 44 1022.6
20190626164823 89 321 3.0 7.0 0.00 0.00 0.00 44 1022.6
20190626164334 90 127 1.0 6.0 0.00 0.00 0.00 44 1022.7
20190626163818 90 328 2.0 6.0 0.00 0.00 0.00 44 1022.7
20190626163323 90 60 2.0 6.0 0.00 0.00 0.00 45 1022.6
20190626162826 90 78 2.0 7.0 0.00 0.00 0.00 46 1022.6
20190626162310 89 18 2.0 8.0 0.00 0.00 0.00 47 1022.8
20190626161819 89 285 4.0 8.0 0.00 0.00 0.00 47 1022.9
20190626161320 89 11 1.0 6.0 0.00 0.00 0.00 48 1022.9
20190626160825 89 290 1.0 4.0 0.00 0.00 0.00 51 1022.9
20190626160327 89 342 0.0 4.0 0.00 0.00 0.00 51 1022.8
20190626155817 88 324 2.0 5.0 0.00 0.00 0.00 49 1022.8
20190626155318 89 352 2.0 5.0 0.00 0.00 0.00 48 1022.7
20190626154828 89 253 1.0 5.0 0.00 0.00 0.00 50 1022.6
20190626154311 89 33 1.0 9.0 0.00 0.00 0.00 52 1022.6
20190626153815 88 15 4.0 9.0 0.00 0.00 0.00 50 1022.8
20190626153319 88 141 4.0 6.0 0.00 0.00 0.00 50 1022.9
20190626152811 89 349 1.0 5.0 0.00 0.00 0.00 50 1022.8
20190626152315 89 119 2.0 8.0 0.00 0.00 0.00 51 1022.8
20190626151820 88 186 3.0 8.0 0.00 0.00 0.00 52 1022.6
20190626151330 88 332 2.0 5.0 0.00 0.00 0.00 52 1022.7
20190626150813 87 48 1.0 5.0 0.00 0.00 0.00 54 1022.7
20190626150327 87 91 3.0 5.0 0.00 0.00 0.00 54 1022.7
20190626145825 87 101 1.0 4.0 0.00 0.00 0.00 55 1022.9
20190626145328 86 71 1.0 4.0 0.00 0.00 0.00 56 1022.9
20190626144814 85 52 1.0 9.0 0.00 0.00 0.00 57 1023.0
20190626144316 85 63 3.0 9.0 0.00 0.00 0.00 58 1023.0
20190626143823 85 328 1.0 4.0 0.00 0.00 0.00 59 1023.0
20190626143326 85 319 2.0 5.0 0.00 0.00 0.00 60 1023.0
20190626142810 84 305 1.0 6.0 0.00 0.00 0.00 60 1023.1
20190626142312 84 311 2.0 6.0 0.00 0.00 0.00 60 1022.9
20190626141821 84 330 2.0 3.0 0.00 0.00 0.00 60 1022.9
20190626141324 84 168 1.0 4.0 0.00 0.00 0.00 60 1022.9
20190626140833 84 151 1.0 4.0 0.00 0.00 0.00 61 1023.0
20190626140327 84 324 1.0 3.0 0.00 0.00 0.00 61 1023.0
20190626135819 84 91 1.0 3.0 0.00 0.00 0.00 61 1023.1
20190626135324 83 32 1.0 3.0 0.00 0.00 0.00 62 1023.1
20190626134832 83 30 0.0 2.0 0.00 0.00 0.00 62 1023.1
20190626134312 82 306 0.0 3.0 0.00 0.00 0.00 63 1023.2
20190626133816 82 339 1.0 5.0 0.00 0.00 0.00 63 1023.3
20190626133326 81 300 1.0 5.0 0.00 0.00 0.00 63 1023.2
20190626132809 81 39 2.0 5.0 0.00 0.00 0.00 63 1023.1
20190626132314 81 350 2.0 4.0 0.00 0.00 0.00 64 1023.1
20190626131819 81 323 1.0 4.0 0.00 0.00 0.00 63 1022.9
20190626131329 81 23 2.0 4.0 0.00 0.00 0.00 63 1022.9
20190626130814 81 243 2.0 4.0 0.00 0.00 0.00 64 1022.8
20190626130327 81 321 1.0 4.0 0.00 0.00 0.00 64 1022.8
20190626125822 80 331 1.0 2.0 0.00 0.00 0.00 65 1022.8
20190626125324 80 297 1.0 2.0 0.00 0.00 0.00 65 1022.7
20190626124809 80 303 0.0 4.0 0.00 0.00 0.00 65 1022.7
20190626124313 79 34 1.0 4.0 0.00 0.00 0.00 66 1022.6
20190626123825 79 50 0.0 3.0 0.00 0.00 0.00 67 1022.5
20190626123309 78 202 1.0 3.0 0.00 0.00 0.00 67 1022.6
20190626122809 78 258 0.0 4.0 0.00 0.00 0.00 68 1022.6
20190626122312 78 304 0.0 1.0 0.00 0.00 0.00 68 1022.6
20190626121820 78 312 0.0 2.0 0.00 0.00 0.00 68 1022.6
20190626121325 77 344 1.0 3.0 0.00 0.00 0.00 68 1022.6
20190626120809 77 349 1.0 3.0 0.00 0.00 0.00 69 1022.5
20190626120328 77 300 1.0 2.0 0.00 0.00 0.00 69 1022.5
20190626115820 77 319 0.0 3.0 0.00 0.00 0.00 69 1022.3
20190626115324 77 354 1.0 2.0 0.00 0.00 0.00 70 1022.1
20190626114834 77 345 0.0 1.0 0.00 0.00 0.00 70 1022.1
20190626114319 76 346 0.0 1.0 0.00 0.00 0.00 71 1022.0
20190626113823 76 348 0.0 1.0 0.00 0.00 0.00 71 1021.8
20190626113333 76 347 0.0 2.0 0.00 0.00 0.00 71 1021.9
20190626112817 76 323 0.0 1.0 0.00 0.00 0.00 72 1021.9
20190626112322 76 322 0.0 1.0 0.00 0.00 0.00 72 1021.9
20190626111825 76 322 0.0 2.0 0.00 0.00 0.00 72 1021.8
20190626111308 76 321 0.0 2.0 0.00 0.00 0.00 72 1021.7
20190626110820 76 297 0.0 1.0 0.00 0.00 0.00 73 1021.7
20190626110334 76 296 0.0 1.0 0.00 0.00 0.00 74 1021.7
20190626105833 76 297 0.0 0.0 0.00 0.00 0.00 74 1021.7
20190626105317 76 297 0.0 0.0 0.00 0.00 0.00 74 1021.5
20190626104818 76 297 0.0 0.0 0.00 0.00 0.00 74 1021.5
20190626104322 75 296 0.0 0.0 0.00 0.00 0.00 74 1021.3
20190626103809 75 296 0.0 0.0 0.00 0.00 0.00 75 1021.3
20190626103320 75 296 0.0 0.0 0.00 0.00 0.00 75 1021.3
20190626102824 75 296 0.0 0.0 0.00 0.00 0.00 75 1021.0
20190626102310 75 296 0.0 0.0 0.00 0.00 0.00 75 1021.2
20190626101817 75 296 0.0 0.0 0.00 0.00 0.00 75 1021.1
20190626101326 76 296 0.0 0.0 0.00 0.00 0.00 74 1020.9